owner,sensor,date,latitude,longitude,vertical_datum,sea_water_speed,direction_of_sea_water_velocity,upward_sea_water_velocity,qcFlag
BP,ioos:station:wmo:42369:4,2021-02-01T00:00:00Z,27.2043,-90.2741,1343.0,8.3,222.6,-9999.0,'111111111,111111111,999999991'
BP,ioos:station:wmo:42369:4,2021-02-01T00:20:00Z,27.2039,-90.2742,1343.0,8.6,226.9,-9999.0,'111111111,111111111,999999991'
BP,ioos:station:wmo:42369:4,2021-02-01T00:40:00Z,27.2035,-90.2744,1343.0,8.0,234.1,-9999.0,'111111111,111111111,999999991'
BP,ioos:station:wmo:42369:4,2021-02-01T01:00:00Z,27.2031,-90.2746,1343.0,7.2,250.6,-9999.0,'111111111,111111111,999999991'
BP,ioos:station:wmo:42369:4,2021-02-01T01:20:00Z,27.2027,-90.2747,1343.0,7.5,260.0,-9999.0,'111111111,111111111,999999991'
BP,ioos:station:wmo:42369:4,2021-02-01T01:40:00Z,27.2025,-90.2748,1343.0,8.3,265.9,-9999.0,'111111111,111111111,999999991'
BP,ioos:station:wmo:42369:4,2021-02-01T02:00:00Z,27.2023,-90.2749,1343.0,7.8,257.4,-9999.0,'111111111,111111111,999999991'
BP,ioos:station:wmo:42369:4,2021-02-01T02:20:00Z,27.2022,-90.2750,1343.0,7.8,259.7,-9999.0,'111111111,111111111,999999991'
BP,ioos:station:wmo:42369:4,2021-02-01T02:40:00Z,27.2019,-90.2751,1343.0,8.0,264.3,-9999.0,'111111111,111111111,999999991'
BP,ioos:station:wmo:42369:4,2021-02-01T03:00:00Z,27.2016,-90.2754,1343.0,7.9,259.8,-9999.0,'111111111,111111111,999999991'
BP,ioos:station:wmo:42369:4,2021-02-01T03:20:00Z,27.2014,-90.2755,1343.0,7.7,264.8,-9999.0,'111111111,111111111,999999991'
BP,ioos:station:wmo:42369:4,2021-02-01T03:40:00Z,27.2011,-90.2756,1343.0,7.6,264.0,-9999.0,'111111111,111111111,999999991'
BP,ioos:station:wmo:42369:4,2021-02-01T04:00:00Z,27.2008,-90.2759,1343.0,6.9,255.8,-9999.0,'111111111,111111111,999999991'
BP,ioos:station:wmo:42369:4,2021-02-01T04:20:00Z,27.2005,-90.2762,1343.0,7.1,251.1,-9999.0,'111111111,111111111,999999991'
BP,ioos:station:wmo:42369:4,2021-02-01T04:40:00Z,27.2002,-90.2766,1343.0,6.8,252.1,-9999.0,'111111111,111111111,999999991'
BP,ioos:station:wmo:42369:4,2021-02-01T05:00:00Z,27.2001,-90.2767,1343.0,8.5,247.9,-9999.0,'111111111,111111111,999999991'
BP,ioos:station:wmo:42369:4,2021-02-01T05:20:00Z,27.2000,-90.2770,1343.0,7.9,255.3,-9999.0,'111111111,111111111,999999991'
BP,ioos:station:wmo:42369:4,2021-02-01T05:40:00Z,27.1999,-90.2771,1343.0,8.5,263.2,-9999.0,'111111111,111111111,999999991'
BP,ioos:station:wmo:42369:4,2021-02-01T06:00:00Z,27.1998,-90.2772,1343.0,8.4,270.0,-9999.0,'111111111,111111111,999999991'
BP,ioos:station:wmo:42369:4,2021-02-01T06:20:00Z,27.1997,-90.2773,1343.0,7.0,260.1,-9999.0,'111111111,111111111,999999991'
BP,ioos:station:wmo:42369:4,2021-02-01T06:40:00Z,27.1998,-90.2774,1343.0,6.8,265.8,-9999.0,'111111111,111111111,999999991'
BP,ioos:station:wmo:42369:4,2021-02-01T07:00:00Z,27.1997,-90.2774,1343.0,6.2,270.9,-9999.0,'111111111,111111111,999999991'
BP,ioos:station:wmo:42369:4,2021-02-01T07:20:00Z,27.1996,-90.2776,1343.0,6.6,285.7,-9999.0,'111111111,111111111,999999991'
BP,ioos:station:wmo:42369:4,2021-02-01T07:40:00Z,27.1995,-90.2779,1343.0,4.3,310.3,-9999.0,'111111111,111111111,999999991'
BP,ioos:station:wmo:42369:4,2021-02-01T08:00:00Z,27.1995,-90.2781,1343.0,3.1,273.7,-9999.0,'111111111,111111111,999999991'
BP,ioos:station:wmo:42369:4,2021-02-01T08:20:00Z,27.1994,-90.2782,1343.0,4.5,309.6,-9999.0,'111111111,111111111,999999991'
BP,ioos:station:wmo:42369:4,2021-02-01T08:40:00Z,27.1994,-90.2783,1343.0,4.4,290.1,-9999.0,'111111111,111111111,999999991'
BP,ioos:station:wmo:42369:4,2021-02-01T09:00:00Z,27.1994,-90.2784,1343.0,5.9,306.7,-9999.0,'111111111,111111111,999999991'
BP,ioos:station:wmo:42369:4,2021-02-01T09:20:00Z,27.1994,-90.2784,1343.0,8.0,315.5,-9999.0,'111111111,111111111,999999991'
BP,ioos:station:wmo:42369:4,2021-02-01T09:40:00Z,27.1994,-90.2783,1343.0,8.0,314.5,-9999.0,'111111111,111111111,999999991'
BP,ioos:station:wmo:42369:4,2021-02-01T10:00:00Z,27.1995,-90.2783,1343.0,10.0,311.3,-9999.0,'111111111,111111111,999999991'
BP,ioos:station:wmo:42369:4,2021-02-01T10:20:00Z,27.1996,-90.2781,1343.0,7.7,311.3,-9999.0,'111111111,111111111,999999991'
BP,ioos:station:wmo:42369:4,2021-02-01T10:40:00Z,27.1998,-90.2778,1343.0,7.1,328.8,-9999.0,'111111111,111111111,999999991'
BP,ioos:station:wmo:42369:4,2021-02-01T11:00:00Z,27.1999,-90.2776,1343.0,7.5,316.1,-9999.0,'111111111,111111111,999999991'
BP,ioos:station:wmo:42369:4,2021-02-01T11:20:00Z,27.2001,-90.2775,1343.0,6.2,325.5,-9999.0,'111111111,111111111,999999991'
BP,ioos:station:wmo:42369:4,2021-02-01T11:40:00Z,27.2001,-90.2773,1343.0,4.7,330.7,-9999.0,'111111111,111111111,999999991'
BP,ioos:station:wmo:42369:4,2021-02-01T12:00:00Z,27.2002,-90.2772,1343.0,4.9,329.2,-9999.0,'111111111,111111111,999999991'
BP,ioos:station:wmo:42369:4,2021-02-01T12:20:00Z,27.2003,-90.2772,1343.0,3.5,315.0,-9999.0,'111111111,111111111,999999991'
BP,ioos:station:wmo:42369:4,2021-02-01T12:40:00Z,27.2006,-90.2769,1343.0,5.0,315.8,-9999.0,'111111111,111111111,999999991'
BP,ioos:station:wmo:42369:4,2021-02-01T13:00:00Z,27.2008,-90.2767,1343.0,5.7,293.9,-9999.0,'111111111,111111111,999999991'
BP,ioos:station:wmo:42369:4,2021-02-01T13:20:00Z,27.2010,-90.2766,1343.0,5.2,301.5,-9999.0,'111111111,111111111,999999991'
BP,ioos:station:wmo:42369:4,2021-02-01T13:40:00Z,27.2011,-90.2765,1343.0,3.3,307.6,-9999.0,'111111111,111111111,999999991'
BP,ioos:station:wmo:42369:4,2021-02-01T14:00:00Z,27.2014,-90.2764,1343.0,4.5,306.9,-9999.0,'111111111,111111111,999999991'
BP,ioos:station:wmo:42369:4,2021-02-01T14:20:00Z,27.2015,-90.2764,1343.0,3.2,303.7,-9999.0,'111111111,111111111,999999991'
BP,ioos:station:wmo:42369:4,2021-02-01T14:40:00Z,27.2016,-90.2765,1343.0,3.3,298.9,-9999.0,'111111111,111111111,999999991'
BP,ioos:station:wmo:42369:4,2021-02-01T15:00:00Z,27.2018,-90.2763,1343.0,2.9,292.2,-9999.0,'111331111,111111111,999999991'
BP,ioos:station:wmo:42369:4,2021-02-01T15:20:00Z,27.2019,-90.2763,1343.0,2.8,288.4,-9999.0,'111331111,111111111,999999991'
BP,ioos:station:wmo:42369:4,2021-02-01T15:40:00Z,27.2019,-90.2765,1343.0,1.0,264.3,-9999.0,'111331111,111111111,999999991'
BP,ioos:station:wmo:42369:4,2021-02-01T16:00:00Z,27.2019,-90.2765,1343.0,2.5,270.0,-9999.0,'111331111,111111111,999999991'
BP,ioos:station:wmo:42369:4,2021-02-01T16:20:00Z,27.2020,-90.2766,1343.0,2.3,230.2,-9999.0,'111331111,111111111,999999991'
BP,ioos:station:wmo:42369:4,2021-02-01T16:40:00Z,27.2021,-90.2765,1343.0,1.4,245.2,-9999.0,'111331111,111111111,999999991'
BP,ioos:station:wmo:42369:4,2021-02-01T17:00:00Z,27.2022,-90.2765,1343.0,3.2,270.0,-9999.0,'111111111,111111111,999999991'
BP,ioos:station:wmo:42369:4,2021-02-01T17:20:00Z,27.2024,-90.2765,1343.0,3.9,258.1,-9999.0,'111111111,111111111,999999991'
BP,ioos:station:wmo:42369:4,2021-02-01T17:40:00Z,27.2025,-90.2766,1343.0,6.1,255.7,-9999.0,'111111111,111111111,999999991'
BP,ioos:station:wmo:42369:4,2021-02-01T18:00:00Z,27.2027,-90.2764,1343.0,6.2,253.0,-9999.0,'111111111,111111111,999999991'
BP,ioos:station:wmo:42369:4,2021-02-01T18:20:00Z,27.2029,-90.2763,1343.0,5.5,256.2,-9999.0,'111111111,111111111,999999991'
BP,ioos:station:wmo:42369:4,2021-02-01T18:40:00Z,27.2031,-90.2762,1343.0,8.1,255.8,-9999.0,'111111111,111111111,999999991'
BP,ioos:station:wmo:42369:4,2021-02-01T19:00:00Z,27.2033,-90.2761,1343.0,8.8,253.4,-9999.0,'111111111,111111111,999999991'
BP,ioos:station:wmo:42369:4,2021-02-01T19:20:00Z,27.2036,-90.2761,1343.0,9.0,255.8,-9999.0,'111111111,111111111,999999991'
BP,ioos:station:wmo:42369:4,2021-02-01T19:40:00Z,27.2039,-90.2759,1343.0,9.5,254.8,-9999.0,'111111111,111111111,999999991'
BP,ioos:station:wmo:42369:4,2021-02-01T20:00:00Z,27.2041,-90.2759,1343.0,11.1,258.1,-9999.0,'111111111,111111111,999999991'
BP,ioos:station:wmo:42369:4,2021-02-01T20:20:00Z,27.2044,-90.2758,1343.0,11.8,248.6,-9999.0,'111111111,111111111,999999991'
BP,ioos:station:wmo:42369:4,2021-02-01T20:40:00Z,27.2047,-90.2756,1343.0,12.8,257.8,-9999.0,'111111111,111111111,999999991'
BP,ioos:station:wmo:42369:4,2021-02-01T21:00:00Z,27.2049,-90.2755,1343.0,13.4,265.7,-9999.0,'111111111,111111111,999999991'
BP,ioos:station:wmo:42369:4,2021-02-01T21:20:00Z,27.2051,-90.2754,1343.0,13.5,260.2,-9999.0,'111111111,111111111,999999991'
BP,ioos:station:wmo:42369:4,2021-02-01T21:40:00Z,27.2051,-90.2753,1343.0,13.9,262.2,-9999.0,'111111111,111111111,999999991'
BP,ioos:station:wmo:42369:4,2021-02-01T22:00:00Z,27.2052,-90.2752,1343.0,13.3,262.7,-9999.0,'111111111,111111111,999999991'
BP,ioos:station:wmo:42369:4,2021-02-01T22:20:00Z,27.2053,-90.2750,1343.0,12.6,257.2,-9999.0,'111111111,111111111,999999991'
BP,ioos:station:wmo:42369:4,2021-02-01T22:40:00Z,27.2053,-90.2748,1343.0,14.7,260.6,-9999.0,'111111111,111111111,999999991'
BP,ioos:station:wmo:42369:4,2021-02-01T23:00:00Z,27.2054,-90.2747,1343.0,13.6,264.1,-9999.0,'111111111,111111111,999999991'
BP,ioos:station:wmo:42369:4,2021-02-01T23:20:00Z,27.2053,-90.2747,1343.0,13.2,263.5,-9999.0,'111111111,111111111,999999991'
BP,ioos:station:wmo:42369:4,2021-02-01T23:40:00Z,27.2052,-90.2747,1343.0,13.6,263.7,-9999.0,'111111111,111111111,999999991'
BP,ioos:station:wmo:42369:4,2021-02-02T00:00:00Z,27.2049,-90.2747,1343.0,13.3,263.9,-9999.0,'111111111,111111111,999999991'
BP,ioos:station:wmo:42369:4,2021-02-02T00:20:00Z,27.2047,-90.2747,1343.0,11.9,265.2,-9999.0,'111111111,111111111,999999991'
BP,ioos:station:wmo:42369:4,2021-02-02T00:40:00Z,27.2044,-90.2746,1343.0,13.3,261.3,-9999.0,'111111111,111111111,999999991'
BP,ioos:station:wmo:42369:4,2021-02-02T01:00:00Z,27.2042,-90.2745,1343.0,13.1,266.9,-9999.0,'111111111,111111111,999999991'
BP,ioos:station:wmo:42369:4,2021-02-02T01:20:00Z,27.2041,-90.2745,1343.0,13.7,267.1,-9999.0,'111111111,111111111,999999991'
BP,ioos:station:wmo:42369:4,2021-02-02T01:40:00Z,27.2039,-90.2746,1343.0,13.8,268.3,-9999.0,'111111111,111111111,999999991'
BP,ioos:station:wmo:42369:4,2021-02-02T02:00:00Z,27.2037,-90.2746,1343.0,13.9,267.1,-9999.0,'111111111,111111111,999999991'
BP,ioos:station:wmo:42369:4,2021-02-02T02:20:00Z,27.2035,-90.2747,1343.0,15.6,264.5,-9999.0,'111111111,111111111,999999991'
BP,ioos:station:wmo:42369:4,2021-02-02T02:40:00Z,27.2035,-90.2746,1343.0,13.5,265.8,-9999.0,'111111111,111111111,999999991'
BP,ioos:station:wmo:42369:4,2021-02-02T03:00:00Z,27.2034,-90.2747,1343.0,12.0,263.3,-9999.0,'111111111,111111111,999999991'
BP,ioos:station:wmo:42369:4,2021-02-02T03:20:00Z,27.2033,-90.2747,1343.0,12.2,264.3,-9999.0,'111111111,111111111,999999991'
BP,ioos:station:wmo:42369:4,2021-02-02T03:40:00Z,27.2030,-90.2747,1343.0,11.4,262.4,-9999.0,'111111111,111111111,999999991'
BP,ioos:station:wmo:42369:4,2021-02-02T04:00:00Z,27.2029,-90.2749,1343.0,11.9,261.3,-9999.0,'111111111,111111111,999999991'
BP,ioos:station:wmo:42369:4,2021-02-02T04:20:00Z,27.2027,-90.2750,1343.0,11.2,256.1,-9999.0,'111111111,111111111,999999991'
BP,ioos:station:wmo:42369:4,2021-02-02T04:40:00Z,27.2024,-90.2752,1343.0,10.9,249.1,-9999.0,'111111111,111111111,999999991'
BP,ioos:station:wmo:42369:4,2021-02-02T05:00:00Z,27.2022,-90.2753,1343.0,10.4,255.6,-9999.0,'111111111,111111111,999999991'
BP,ioos:station:wmo:42369:4,2021-02-02T05:20:00Z,27.2019,-90.2755,1343.0,10.7,262.5,-9999.0,'111111111,111111111,999999991'
BP,ioos:station:wmo:42369:4,2021-02-02T05:40:00Z,27.2017,-90.2757,1343.0,10.2,265.0,-9999.0,'111111111,111111111,999999991'
BP,ioos:station:wmo:42369:4,2021-02-02T06:00:00Z,27.2016,-90.2759,1343.0,9.4,268.2,-9999.0,'111111111,111111111,999999991'
BP,ioos:station:wmo:42369:4,2021-02-02T06:20:00Z,27.2015,-90.2760,1343.0,10.2,257.6,-9999.0,'111111111,111111111,999999991'
BP,ioos:station:wmo:42369:4,2021-02-02T06:40:00Z,27.2014,-90.2760,1343.0,10.2,262.7,-9999.0,'111111111,111111111,999999991'
BP,ioos:station:wmo:42369:4,2021-02-02T07:00:00Z,27.2013,-90.2760,1343.0,9.7,261.7,-9999.0,'111111111,111111111,999999991'
BP,ioos:station:wmo:42369:4,2021-02-02T07:20:00Z,27.2012,-90.2761,1343.0,9.2,254.9,-9999.0,'111111111,111111111,999999991'
BP,ioos:station:wmo:42369:4,2021-02-02T07:40:00Z,27.2012,-90.2761,1343.0,10.3,259.3,-9999.0,'111111111,111111111,999999991'
BP,ioos:station:wmo:42369:4,2021-02-02T08:00:00Z,27.2008,-90.2765,1343.0,8.9,256.4,-9999.0,'111111111,111111111,999999991'
BP,ioos:station:wmo:42369:4,2021-02-02T08:20:00Z,27.2005,-90.2768,1343.0,9.6,259.2,-9999.0,'111111111,111111111,999999991'
BP,ioos:station:wmo:42369:4,2021-02-02T08:40:00Z,27.2004,-90.2771,1343.0,11.1,267.4,-9999.0,'111111111,111111111,999999991'
BP,ioos:station:wmo:42369:4,2021-02-02T09:00:00Z,27.2002,-90.2774,1343.0,9.1,266.9,-9999.0,'111111111,111111111,999999991'
BP,ioos:station:wmo:42369:4,2021-02-02T09:20:00Z,27.2000,-90.2776,1343.0,7.6,265.5,-9999.0,'111111111,111111111,999999991'
BP,ioos:station:wmo:42369:4,2021-02-02T09:40:00Z,27.1999,-90.2778,1343.0,8.1,265.8,-9999.0,'111111111,111111111,999999991'
BP,ioos:station:wmo:42369:4,2021-02-02T10:00:00Z,27.1997,-90.2782,1343.0,9.5,263.3,-9999.0,'111111111,111111111,999999991'
BP,ioos:station:wmo:42369:4,2021-02-02T10:20:00Z,27.1995,-90.2784,1343.0,9.5,260.3,-9999.0,'111111111,111111111,999999991'
BP,ioos:station:wmo:42369:4,2021-02-02T10:40:00Z,27.1994,-90.2787,1343.0,8.7,258.0,-9999.0,'111111111,111111111,999999991'
BP,ioos:station:wmo:42369:4,2021-02-02T11:00:00Z,27.1993,-90.2791,1343.0,8.0,260.0,-9999.0,'111111111,111111111,999999991'
BP,ioos:station:wmo:42369:4,2021-02-02T11:20:00Z,27.1992,-90.2795,1343.0,9.0,259.8,-9999.0,'111111111,111111111,999999991'
BP,ioos:station:wmo:42369:4,2021-02-02T11:40:00Z,27.1990,-90.2798,1343.0,10.0,256.7,-9999.0,'111111111,111111111,999999991'
BP,ioos:station:wmo:42369:4,2021-02-02T12:00:00Z,27.1990,-90.2800,1343.0,11.5,258.5,-9999.0,'111111111,111111111,999999991'
BP,ioos:station:wmo:42369:4,2021-02-02T12:20:00Z,27.1990,-90.2803,1343.0,12.9,256.5,-9999.0,'111111111,111111111,999999991'
BP,ioos:station:wmo:42369:4,2021-02-02T12:40:00Z,27.1990,-90.2804,1343.0,14.0,256.0,-9999.0,'111111111,111111111,999999991'
BP,ioos:station:wmo:42369:4,2021-02-02T13:00:00Z,27.1991,-90.2807,1343.0,14.1,254.4,-9999.0,'111111111,111111111,999999991'
BP,ioos:station:wmo:42369:4,2021-02-02T13:20:00Z,27.1991,-90.2810,1343.0,13.1,255.4,-9999.0,'111111111,111111111,999999991'
BP,ioos:station:wmo:42369:4,2021-02-02T13:40:00Z,27.1992,-90.2811,1343.0,14.4,252.2,-9999.0,'111111111,111111111,999999991'
BP,ioos:station:wmo:42369:4,2021-02-02T14:00:00Z,27.1993,-90.2815,1343.0,13.9,250.7,-9999.0,'111111111,111111111,999999991'
BP,ioos:station:wmo:42369:4,2021-02-02T14:20:00Z,27.1993,-90.2819,1343.0,13.7,246.8,-9999.0,'111111111,111111111,999999991'
BP,ioos:station:wmo:42369:4,2021-02-02T14:40:00Z,27.1995,-90.2822,1343.0,14.1,241.3,-9999.0,'111111111,111111111,999999991'
BP,ioos:station:wmo:42369:4,2021-02-02T15:00:00Z,27.1998,-90.2824,1343.0,13.8,240.1,-9999.0,'111111111,111111111,999999991'
BP,ioos:station:wmo:42369:4,2021-02-02T15:20:00Z,27.2001,-90.2826,1343.0,15.8,248.8,-9999.0,'111111111,111111111,999999991'
BP,ioos:station:wmo:42369:4,2021-02-02T15:40:00Z,27.2003,-90.2828,1343.0,16.6,251.0,-9999.0,'111111111,111111111,999999991'
BP,ioos:station:wmo:42369:4,2021-02-02T16:00:00Z,27.2007,-90.2830,1343.0,17.9,251.5,-9999.0,'111111111,111111111,999999991'
BP,ioos:station:wmo:42369:4,2021-02-02T16:20:00Z,27.2010,-90.2831,1343.0,18.5,255.6,-9999.0,'111111111,111111111,999999991'
BP,ioos:station:wmo:42369:4,2021-02-02T16:40:00Z,27.2015,-90.2831,1343.0,18.2,257.9,-9999.0,'111111111,111111111,999999991'
BP,ioos:station:wmo:42369:4,2021-02-02T17:00:00Z,27.2021,-90.2831,1343.0,19.0,256.9,-9999.0,'111111111,111111111,999999991'
BP,ioos:station:wmo:42369:4,2021-02-02T17:20:00Z,27.2029,-90.2830,1343.0,20.4,258.4,-9999.0,'111111111,111111111,999999991'
BP,ioos:station:wmo:42369:4,2021-02-02T17:40:00Z,27.2037,-90.2830,1343.0,20.0,257.0,-9999.0,'111111111,111111111,999999991'
BP,ioos:station:wmo:42369:4,2021-02-02T18:00:00Z,27.2046,-90.2828,1343.0,17.6,259.5,-9999.0,'111111111,111111111,999999991'
BP,ioos:station:wmo:42369:4,2021-02-02T18:20:00Z,27.2057,-90.2825,1343.0,18.6,256.6,-9999.0,'111111111,111111111,999999991'
BP,ioos:station:wmo:42369:4,2021-02-02T18:40:00Z,27.2070,-90.2822,1343.0,20.1,255.0,-9999.0,'111111111,111111111,999999991'
BP,ioos:station:wmo:42369:4,2021-02-02T19:00:00Z,27.2078,-90.2819,1343.0,21.1,256.8,-9999.0,'111111111,111111111,999999991'
BP,ioos:station:wmo:42369:4,2021-02-02T19:20:00Z,27.2089,-90.2816,1343.0,22.2,258.8,-9999.0,'111111111,111111111,999999991'
BP,ioos:station:wmo:42369:4,2021-02-02T19:40:00Z,27.2100,-90.2810,1343.0,23.7,258.8,-9999.0,'111111111,111111111,999999991'
BP,ioos:station:wmo:42369:4,2021-02-02T20:00:00Z,27.2110,-90.2802,1343.0,21.0,260.4,-9999.0,'111111111,111111111,999999991'
BP,ioos:station:wmo:42369:4,2021-02-02T20:20:00Z,27.2117,-90.2795,1343.0,22.3,260.2,-9999.0,'111111111,111111111,999999991'
BP,ioos:station:wmo:42369:4,2021-02-02T20:40:00Z,27.2118,-90.2789,1343.0,20.9,262.8,-9999.0,'111111111,111111111,999999991'
BP,ioos:station:wmo:42369:4,2021-02-02T21:00:00Z,27.2117,-90.2785,1343.0,19.7,264.5,-9999.0,'111111111,111111111,999999991'
BP,ioos:station:wmo:42369:4,2021-02-02T21:20:00Z,27.2116,-90.2781,1343.0,19.6,267.7,-9999.0,'111111111,111111111,999999991'
BP,ioos:station:wmo:42369:4,2021-02-02T21:40:00Z,27.2114,-90.2778,1343.0,20.3,268.6,-9999.0,'111111111,111111111,999999991'
BP,ioos:station:wmo:42369:4,2021-02-02T22:00:00Z,27.2112,-90.2774,1343.0,17.7,266.8,-9999.0,'111111111,111111111,999999991'
BP,ioos:station:wmo:42369:4,2021-02-02T22:20:00Z,27.2110,-90.2771,1343.0,20.0,270.9,-9999.0,'111111111,111111111,999999991'
BP,ioos:station:wmo:42369:4,2021-02-02T22:40:00Z,27.2109,-90.2769,1343.0,19.4,273.5,-9999.0,'111111111,111111111,999999991'
BP,ioos:station:wmo:42369:4,2021-02-02T23:00:00Z,27.2107,-90.2767,1343.0,18.4,276.5,-9999.0,'111111111,111111111,999999991'
BP,ioos:station:wmo:42369:4,2021-02-02T23:20:00Z,27.2105,-90.2764,1343.0,18.7,283.3,-9999.0,'111111111,111111111,999999991'
BP,ioos:station:wmo:42369:4,2021-02-02T23:40:00Z,27.2103,-90.2761,1343.0,17.1,283.1,-9999.0,'111111111,111111111,999999991'
BP,ioos:station:wmo:42369:4,2021-02-03T00:00:00Z,27.2101,-90.2759,1343.0,15.1,286.2,-9999.0,'111111111,111111111,999999991'
BP,ioos:station:wmo:42369:4,2021-02-03T00:20:00Z,27.2098,-90.2757,1343.0,13.2,282.7,-9999.0,'111111111,111111111,999999991'
BP,ioos:station:wmo:42369:4,2021-02-03T00:40:00Z,27.2094,-90.2755,1343.0,13.8,289.9,-9999.0,'111111111,111111111,999999991'
BP,ioos:station:wmo:42369:4,2021-02-03T01:00:00Z,27.2091,-90.2753,1343.0,12.5,288.7,-9999.0,'111111111,111111111,999999991'
BP,ioos:station:wmo:42369:4,2021-02-03T01:20:00Z,27.2089,-90.2752,1343.0,11.4,284.8,-9999.0,'111111111,111111111,999999991'
BP,ioos:station:wmo:42369:4,2021-02-03T01:40:00Z,27.2087,-90.2750,1343.0,10.3,278.9,-9999.0,'111111111,111111111,999999991'
BP,ioos:station:wmo:42369:4,2021-02-03T02:00:00Z,27.2085,-90.2749,1343.0,10.9,280.6,-9999.0,'111111111,111111111,999999991'
BP,ioos:station:wmo:42369:4,2021-02-03T02:20:00Z,27.2085,-90.2748,1343.0,10.3,277.3,-9999.0,'111111111,111111111,999999991'
BP,ioos:station:wmo:42369:4,2021-02-03T02:40:00Z,27.2084,-90.2748,1343.0,10.7,273.7,-9999.0,'111111111,111111111,999999991'
BP,ioos:station:wmo:42369:4,2021-02-03T03:00:00Z,27.2083,-90.2748,1343.0,11.0,282.0,-9999.0,'111111111,111111111,999999991'
BP,ioos:station:wmo:42369:4,2021-02-03T03:20:00Z,27.2082,-90.2748,1343.0,7.2,286.2,-9999.0,'111111111,111111111,999999991'
BP,ioos:station:wmo:42369:4,2021-02-03T03:40:00Z,27.2081,-90.2747,1343.0,5.4,324.8,-9999.0,'111111111,111111111,999999991'
BP,ioos:station:wmo:42369:4,2021-02-03T04:00:00Z,27.2080,-90.2747,1343.0,7.8,307.7,-9999.0,'111111111,111111111,999999991'
BP,ioos:station:wmo:42369:4,2021-02-03T04:20:00Z,27.2079,-90.2747,1343.0,5.1,330.4,-9999.0,'111111111,111111111,999999991'
BP,ioos:station:wmo:42369:4,2021-02-03T04:40:00Z,27.2078,-90.2747,1343.0,3.8,332.1,-9999.0,'111111111,111111111,999999991'
BP,ioos:station:wmo:42369:4,2021-02-03T05:00:00Z,27.2077,-90.2747,1343.0,6.9,296.6,-9999.0,'111111111,111111111,999999991'
BP,ioos:station:wmo:42369:4,2021-02-03T05:20:00Z,27.2075,-90.2747,1343.0,9.3,303.2,-9999.0,'111111111,111111111,999999991'
BP,ioos:station:wmo:42369:4,2021-02-03T05:40:00Z,27.2074,-90.2747,1343.0,8.4,312.1,-9999.0,'111111111,111111111,999999991'
BP,ioos:station:wmo:42369:4,2021-02-03T06:00:00Z,27.2073,-90.2747,1343.0,6.9,271.7,-9999.0,'111111111,111111111,999999991'
BP,ioos:station:wmo:42369:4,2021-02-03T06:20:00Z,27.2073,-90.2747,1343.0,6.6,291.5,-9999.0,'111111111,111111111,999999991'
BP,ioos:station:wmo:42369:4,2021-02-03T06:40:00Z,27.2072,-90.2747,1343.0,5.6,299.7,-9999.0,'111111111,111111111,999999991'
BP,ioos:station:wmo:42369:4,2021-02-03T07:00:00Z,27.2072,-90.2747,1343.0,8.0,290.5,-9999.0,'111111111,111111111,999999991'
BP,ioos:station:wmo:42369:4,2021-02-03T07:20:00Z,27.2071,-90.2748,1343.0,7.0,308.0,-9999.0,'111111111,111111111,999999991'
BP,ioos:station:wmo:42369:4,2021-02-03T07:40:00Z,27.2070,-90.2748,1343.0,9.0,290.0,-9999.0,'111111111,111111111,999999991'
BP,ioos:station:wmo:42369:4,2021-02-03T08:00:00Z,27.2070,-90.2749,1343.0,10.6,293.4,-9999.0,'111111111,111111111,999999991'
BP,ioos:station:wmo:42369:4,2021-02-03T08:20:00Z,27.2070,-90.2750,1343.0,6.6,295.0,-9999.0,'111111111,111111111,999999991'
BP,ioos:station:wmo:42369:4,2021-02-03T08:40:00Z,27.2070,-90.2751,1343.0,6.7,287.4,-9999.0,'111111111,111111111,999999991'
BP,ioos:station:wmo:42369:4,2021-02-03T09:00:00Z,27.2070,-90.2752,1343.0,6.4,296.2,-9999.0,'111111111,111111111,999999991'
BP,ioos:station:wmo:42369:4,2021-02-03T09:20:00Z,27.2070,-90.2753,1343.0,6.1,269.1,-9999.0,'111111111,111111111,999999991'
BP,ioos:station:wmo:42369:4,2021-02-03T09:40:00Z,27.2072,-90.2755,1343.0,11.7,289.5,-9999.0,'111111111,111111111,999999991'
BP,ioos:station:wmo:42369:4,2021-02-03T10:00:00Z,27.2072,-90.2756,1343.0,10.6,281.9,-9999.0,'111111111,111111111,999999991'
BP,ioos:station:wmo:42369:4,2021-02-03T10:20:00Z,27.2072,-90.2757,1343.0,9.3,284.3,-9999.0,'111111111,111111111,999999991'
BP,ioos:station:wmo:42369:4,2021-02-03T10:40:00Z,27.2074,-90.2759,1343.0,9.7,288.6,-9999.0,'111111111,111111111,999999991'
BP,ioos:station:wmo:42369:4,2021-02-03T11:00:00Z,27.2076,-90.2761,1343.0,11.9,304.4,-9999.0,'111111111,111111111,999999991'
BP,ioos:station:wmo:42369:4,2021-02-03T11:20:00Z,27.2078,-90.2764,1343.0,12.4,298.8,-9999.0,'111111111,111111111,999999991'
BP,ioos:station:wmo:42369:4,2021-02-03T11:40:00Z,27.2081,-90.2769,1343.0,11.9,300.9,-9999.0,'111111111,111111111,999999991'
BP,ioos:station:wmo:42369:4,2021-02-03T12:00:00Z,27.2086,-90.2775,1343.0,10.0,299.4,-9999.0,'111111111,111111111,999999991'
BP,ioos:station:wmo:42369:4,2021-02-03T12:20:00Z,27.2089,-90.2779,1343.0,8.1,300.4,-9999.0,'111111111,111111111,999999991'
BP,ioos:station:wmo:42369:4,2021-02-03T12:40:00Z,27.2093,-90.2783,1343.0,7.5,287.9,-9999.0,'111111111,111111111,999999991'
BP,ioos:station:wmo:42369:4,2021-02-03T13:00:00Z,27.2097,-90.2788,1343.0,8.7,278.6,-9999.0,'111111111,111111111,999999991'
BP,ioos:station:wmo:42369:4,2021-02-03T13:20:00Z,27.2101,-90.2793,1343.0,7.1,282.3,-9999.0,'111111111,111111111,999999991'
BP,ioos:station:wmo:42369:4,2021-02-03T13:40:00Z,27.2106,-90.2797,1343.0,6.8,273.4,-9999.0,'111111111,111111111,999999991'
BP,ioos:station:wmo:42369:4,2021-02-03T14:00:00Z,27.2111,-90.2801,1343.0,6.8,268.3,-9999.0,'111111111,111111111,999999991'
BP,ioos:station:wmo:42369:4,2021-02-03T14:20:00Z,27.2115,-90.2806,1343.0,6.4,262.8,-9999.0,'111111111,111111111,999999991'
BP,ioos:station:wmo:42369:4,2021-02-03T14:40:00Z,27.2118,-90.2811,1343.0,7.7,262.5,-9999.0,'111111111,111111111,999999991'
BP,ioos:station:wmo:42369:4,2021-02-03T15:00:00Z,27.2119,-90.2812,1343.0,7.9,268.5,-9999.0,'111111111,111111111,999999991'
BP,ioos:station:wmo:42369:4,2021-02-03T15:20:00Z,27.2121,-90.2814,1343.0,8.2,274.9,-9999.0,'111111111,111111111,999999991'